Dayton, OH

5:15 PM EST on February 19, 2017 (GMT -0500)
Wright-Patterson Air Force Base

Weather History for KFFO - July, 2012

Change the Weather History Date:

Monday, July 23, 2012

  Actual Average Record
Temperature  
Mean Temperature 85 °F -  
Max Temperature 97 °F 82 °F 97 °F (2012)
Min Temperature 73 °F 61 °F 56 °F (2007)
Cooling Degree Days 20    
Growing Degree Days 35 (Base 50)    
Moisture  
Dew Point 68 °F    
Average Humidity 60    
Maximum Humidity 81    
Minimum Humidity 38    
Precipitation  
Precipitation 0.00 in - - ()
Sea Level Pressure  
Sea Level Pressure 30.03 in    
Wind  
Wind Speed 6 mph (SW)    
Max Wind Speed 20 mph    
Max Gust Speed 26 mph    
Visibility 10 miles    
Events Rain    
Averages and records for this station are not official NWS values.
T = Trace of Precipitation, MM = Missing Value Source: NWS Daily Summary

Daily Weather History Graph

Daily Weather History Graph

Search for Another Location

Airport or City:

Trip Planner

Search our weather history database for the weather conditions in past years. The results will help you decide how hot, cold, wet, or windy it might be!

Date:

Astronomy

Jul. 23, 2012 Rise Set
Actual Time 6:27 AM EDT 8:57 PM EDT
Civil Twilight 5:56 AM EDT 9:28 PM EDT
Nautical Twilight 5:17 AM EDT 10:06 PM EDT
Astronomical Twilight 4:34 AM EDT 10:49 PM EDT
Moon 11:16 AM EDT (7/23) 11:12 PM EDT (7/23)
Length of Visible Light 15h 31m
Length of Day
14h 30m
Waxing Crescent, 21% of the Moon is Illuminated
Jul 23
Waxing Crescent
Jul 26
First Quarter
Aug 1
Full
Aug 9
Last Quarter
Aug 17
New

Hourly Weather History & Observations

Time (EDT) Temp. Heat Index Dew Point Humidity Pressure Visibility Wind Dir Wind Speed Gust Speed Precip Events Conditions
12:55 AM 77.9 °F - 67.3 °F 70% 30.11 in 10.0 mi Calm Calm - N/A   Overcast
1:55 AM 78.8 °F - 66.0 °F 65% 30.10 in 10.0 mi South 3.5 mph - N/A   Overcast
2:55 AM 77.5 °F - 66.6 °F 69% 30.09 in 10.0 mi Calm Calm - N/A   Overcast
3:55 AM 76.1 °F - 67.1 °F 74% 30.08 in 10.0 mi SE 3.5 mph - N/A   Mostly Cloudy
4:55 AM 74.7 °F - 66.9 °F 77% 30.09 in 10.0 mi Calm Calm - N/A   Overcast
5:55 AM 73.9 °F - 67.6 °F 81% 30.09 in 10.0 mi SE 3.5 mph - N/A   Overcast
6:55 AM 74.5 °F - 67.1 °F 78% 30.08 in 10.0 mi South 6.9 mph - N/A   Mostly Cloudy
7:55 AM 77.2 °F - 66.2 °F 69% 30.09 in 10.0 mi SW 8.1 mph - N/A   Overcast
8:19 AM 77.0 °F - 68.0 °F 74% 30.09 in 10.0 mi SW 6.9 mph - N/A Rain Light Rain
8:29 AM 77.0 °F - 68.0 °F 74% 30.09 in 10.0 mi SW 4.6 mph - N/A   Overcast
8:55 AM 76.6 °F - 67.8 °F 74% 30.09 in 10.0 mi SSW 4.6 mph - 0.00 in   Overcast
9:55 AM 80.6 °F 83.6 °F 69.3 °F 68% 30.08 in 10.0 mi SW 10.4 mph - N/A   Mostly Cloudy
10:55 AM 84.9 °F 90.1 °F 71.1 °F 63% 30.08 in 10.0 mi West 8.1 mph - N/A   Mostly Cloudy
12:55 PM 90.7 °F 93.2 °F 66.2 °F 44% 30.07 in 10.0 mi NW 9.2 mph - N/A   Mostly Cloudy
1:55 PM 88.0 °F 90.7 °F 66.4 °F 49% 30.07 in 10.0 mi NNW 8.1 mph - N/A   Mostly Cloudy
2:55 PM 88.0 °F 92.9 °F 70.2 °F 55% 30.01 in 10.0 mi South 9.2 mph - N/A   Mostly Cloudy
3:55 PM 95.7 °F 99.8 °F 67.1 °F 39% 29.98 in 10.0 mi SSW 10.4 mph 18.4 mph N/A   Scattered Clouds
4:55 PM 95.9 °F 100.1 °F 67.3 °F 39% 29.96 in 10.0 mi SW 13.8 mph 23.0 mph N/A   Partly Cloudy
5:34 PM 96.8 °F 101.8 °F 68.0 °F 39% 29.96 in 10.0 mi WSW 17.3 mph 26.5 mph N/A   Partly Cloudy
5:55 PM 97.2 °F 101.9 °F 68.0 °F 38% 29.94 in 10.0 mi WSW 17.3 mph 24.2 mph N/A   Partly Cloudy
6:55 PM 95.5 °F 102.4 °F 70.7 °F 44% 29.93 in 10.0 mi SW 19.6 mph 26.5 mph N/A   Partly Cloudy
7:55 PM 92.8 °F 100.3 °F 72.0 °F 50% 29.92 in 10.0 mi SW 18.4 mph - N/A   Partly Cloudy
8:55 PM 90.1 °F 97.3 °F 71.8 °F 55% 29.93 in 10.0 mi SW 15.0 mph - N/A   Partly Cloudy
9:55 PM 87.6 °F 93.5 °F 71.2 °F 58% 29.94 in 10.0 mi SW 11.5 mph - N/A   Clear
10:55 PM 86.9 °F 92.9 °F 71.4 °F 60% 29.94 in 10.0 mi SW 12.7 mph - N/A   Clear